Location: Airlie Beach - Cannonvale QLD, Australia
(20.2768°S, 148.7558°E)
Time: 04:23:11
(UTC+10:00)

BlueWalker 3 - Pass Details

Date: 31 March 2023
Orbit: 494 x 513 km, 53.2° (Epoch: 31 May)

Event Time Altitude Azimuth Distance (km) Brightness Sun altitude
Exits shadow 04:29:57 11° 14° (NNE) 1,611 4.6 -24.7°
Maximum altitude 04:32:26 19° 58° (ENE) 1,233 4.5 -24.1°
Drops below altitude 10° 04:35:11 10° 104° (ESE) 1,699 5.7 -23.4°
Sets 04:37:50 0° 122° (ESE) 2,592 6.6 -22.8°
